Monterey, CA

9:09 AM PST on February 12, 2016 (GMT -0800)
Monterey Peninsula

Weather History for KMRY - April, 2013

Change the Weather History Date:

Wednesday, April 24, 2013

  Actual Average Record
Temperature  
Mean Temperature 58 °F 55 °F  
Max Temperature 67 °F 62 °F 70 °F (1999)
Min Temperature 49 °F 48 °F 42 °F (2008)
Degree Days  
Heating Degree Days 7    
Month to date heating degree days 237  
Since 1 July heating degree days 2887  
Cooling Degree Days 0    
Month to date cooling degree days 0  
Year to date cooling degree days 0  
Growing Degree Days 8 (Base 50)    
Moisture  
Dew Point 48 °F    
Average Humidity 75    
Maximum Humidity 93    
Minimum Humidity 56    
Precipitation  
Precipitation 0.00 in - 0.20 in (1951)
Month to date precipitation 0.30  
Year to date precipitation 3.09  
Since 1 July precipitation 11.33  
Sea Level Pressure  
Sea Level Pressure 29.94 in    
Wind  
Wind Speed 5 mph (NW)    
Max Wind Speed 16 mph    
Max Gust Speed 20 mph    
Visibility 10 miles    
Events      
T = Trace of Precipitation, MM = Missing Value Source: NWS Daily Summary

Daily Weather History Graph

Daily Weather History Graph

Search for Another Location

Airport or City:

Trip Planner

Search our weather history database for the weather conditions in past years. The results will help you decide how hot, cold, wet, or windy it might be!

Date:

Astronomy

Apr. 24, 2013 Rise Set
Actual Time 6:21 AM PDT 7:49 PM PDT
Civil Twilight 5:54 AM PDT 8:17 PM PDT
Nautical Twilight 5:21 AM PDT 8:49 PM PDT
Astronomical Twilight 4:47 AM PDT 9:24 PM PDT
Moon 7:00 PM PDT (4/24) 5:26 AM PDT (4/24)
Length of Visible Light 14h 22m
Length of Day
13h 28m
Waxing Gibbous, 98% of the Moon is Illuminated
Apr 24
Waxing Gibbous
Apr 25
Full
May 2
Last Quarter
May 9
New
May 17
First Quarter

Hourly Weather History & Observations

Time (PDT) Temp. Dew Point Humidity Pressure Visibility Wind Dir Wind Speed Gust Speed Precip Events Conditions
12:54 AM 52.0 °F 48.0 °F 86% 29.95 in 10.0 mi ENE 3.5 mph - N/A   Overcast
1:54 AM 51.1 °F 48.0 °F 89% 29.93 in 10.0 mi Calm Calm - N/A   Overcast
2:52 AM 50.0 °F 48.2 °F 94% 29.87 in 10.0 mi NNE 4.6 mph - N/A   Overcast
2:54 AM 50.0 °F 48.0 °F 93% 29.91 in 9.0 mi NNE 3.5 mph - N/A   Overcast
3:54 AM 50.0 °F 46.9 °F 89% 29.90 in 7.0 mi NNE 3.5 mph - N/A   Overcast
4:54 AM 50.0 °F 46.9 °F 89% 29.91 in 7.0 mi SSW 5.8 mph - N/A   Overcast
5:30 AM 50.0 °F 46.4 °F 87% 29.87 in 10.0 mi Calm Calm - N/A   Overcast
5:54 AM 50.0 °F 46.9 °F 89% 29.91 in 10.0 mi West 5.8 mph - N/A   Overcast
6:54 AM 51.1 °F 46.9 °F 86% 29.92 in 9.0 mi Calm Calm - N/A   Overcast
7:54 AM 50.0 °F 46.9 °F 89% 29.94 in 10.0 mi East 3.5 mph - N/A   Overcast
8:54 AM 52.0 °F 46.9 °F 83% 29.96 in 10.0 mi Calm Calm - N/A   Overcast
9:15 AM 51.8 °F 46.4 °F 82% 29.92 in 10.0 mi Variable 3.5 mph - N/A   Overcast
9:54 AM 53.1 °F 46.9 °F 80% 29.96 in 10.0 mi NNE 3.5 mph - N/A   Overcast
10:54 AM 55.0 °F 46.9 °F 74% 29.97 in 10.0 mi Calm Calm - N/A   Overcast
11:50 AM 59.0 °F 46.4 °F 63% 29.93 in 10.0 mi Calm Calm - N/A   Scattered Clouds
11:54 AM 59.0 °F 46.9 °F 64% 29.97 in 10.0 mi Calm Calm - N/A   Scattered Clouds
12:54 PM 62.1 °F 48.9 °F 62% 29.95 in 10.0 mi NNW 6.9 mph - N/A   Clear
1:54 PM 64.9 °F 48.9 °F 56% 29.94 in 10.0 mi Variable 3.5 mph - N/A   Clear
2:54 PM 66.0 °F 50.0 °F 56% 29.92 in 10.0 mi SW 15.0 mph 18.4 mph N/A   Clear
3:07 PM 66.2 °F 50.0 °F 56% 29.88 in 10.0 mi WSW 15.0 mph - N/A   Clear
3:54 PM 64.9 °F 50.0 °F 58% 29.91 in 10.0 mi SW 13.8 mph - N/A   Clear
4:54 PM 64.0 °F 50.0 °F 60% 29.91 in 10.0 mi SW 11.5 mph - N/A   Clear
5:54 PM 62.1 °F 50.0 °F 65% 29.92 in 10.0 mi SW 9.2 mph 19.6 mph N/A   Clear
6:54 PM 55.9 °F 50.0 °F 80% 29.94 in 10.0 mi NW 10.4 mph 18.4 mph N/A   Clear
7:46 PM 53.6 °F 50.0 °F 88% 29.92 in 10.0 mi Variable 4.6 mph - N/A   Mostly Cloudy
7:54 PM 54.0 °F 50.0 °F 86% 29.96 in 10.0 mi Variable 4.6 mph - N/A   Mostly Cloudy
8:54 PM 54.0 °F 50.0 °F 86% 29.99 in 10.0 mi NNW 3.5 mph - N/A   Overcast
9:54 PM 54.0 °F 50.0 °F 86% 30.01 in 10.0 mi Calm Calm - N/A   Overcast
10:54 PM 54.0 °F 50.0 °F 86% 30.02 in 10.0 mi NW 3.5 mph - N/A   Overcast
11:54 PM 54.0 °F 50.0 °F 86% 30.03 in 10.0 mi Calm Calm - N/A   Overcast